Wind_Speed
24 23 22 17 11 10 11 10 7 8 8 10 13 15 17 18 18 21 23 24 23 21 19 16 15 14 13 12 11 12 13 14 15 15 15 15 14 13 13 13 13 13 13 13 13 13 14 16 17 17 17 18 19 21 22 24 26 26 26 27 28 30 31 31 32 34 35 35 33 31 32 33 33 33 33 33 31 30 29 28 27 26 24 22 19
23 23 21 18 11 8 9 8 8 9 9 12 15 17 18 18 20 21 22 23 23 21 19 17 15 14 14 12 12 12 13 14 15 15 15 14 14 14 13 12 11 11 11 12 12 13 13 14 14 15 16 18 19 22 23 24 25 26 26 27 28 29 30 30 31 33 34 35 34 32 32 33 34 34 34 33 33 32 32 31 30 29 27 25 22
24 23 22 18 11 7 8 8 10 10 10 12 15 19 20 20 21 22 22 23 22 21 19 17 15 15 14 13 12 12 13 13 14 15 14 14 13 13 13 12 11 11 10 10 11 12 12 12 12 13 15 16 18 21 23 24 25 26 26 26 27 28 29 29 30 32 33 35 34 32 32 33 34 35 34 34 33 33 33 33 32 31 29 27 24
25 24 22 18 12 8 7 8 10 11 10 12 15 19 20 21 22 22 22 22 22 21 19 17 16 16 16 14 13 13 13 13 13 14 14 13 12 12 11 11 11 10 9 9 10 11 11 11 11 13 14 14 16 19 21 23 24 25 25 26 26 27 28 28 29 31 32 34 35 33 31 33 35 35 34 34 33 34 34 33 34 33 32 30 28
27 25 22 19 14 10 7 8 11 11 10 12 16 20 21 22 23 23 23 22 22 20 19 17 16 17 16 14 14 13 13 12 12 13 13 12 11 11 10 9 9 8 8 9 9 9 9 10 10 11 13 13 15 18 20 22 23 24 24 25 26 26 26 27 28 29 31 32 34 34 32 32 34 35 34 33 33 33 33 34 34 35 35 34 33
28 26 23 19 16 12 9 9 11 12 12 13 17 21 23 24 24 24 24 23 21 20 18 18 18 20 18 16 15 14 13 13 12 12 12 12 11 10 9 8 7 6 6 7 7 7 8 9 10 11 12 14 15 17 18 20 22 23 23 24 24 24 25 26 28 28 29 31 33 34 33 32 33 35 34 34 34 33 33 34 35 35 37 37 38
29 28 24 21 17 14 12 12 13 14 13 14 17 21 23 24 25 25 25 24 21 20 18 18 21 22 20 18 16 15 14 13 12 12 12 11 10 9 8 7 6 6 5 5 6 6 7 8 9 10 12 13 14 15 17 19 20 21 22 22 22 23 23 25 27 27 28 30 32 33 34 32 32 33 34 34 34 34 34 35 35 35 37 38 40
32 30 26 23 20 17 16 14 14 15 15 15 17 21 23 24 25 26 26 24 22 20 18 19 23 24 22 19 17 16 14 13 12 11 11 10 10 8 7 7 6 5 5 4 5 5 6 7 8 9 10 11 12 13 15 17 18 19 19 20 21 21 22 24 25 26 28 29 30 32 33 33 31 31 32 32 32 34 35 35 36 37 37 39 40
33 31 27 25 22 20 19 17 16 16 16 16 17 20 23 24 25 26 26 26 24 22 19 21 24 25 23 20 18 17 15 14 12 11 10 10 9 8 7 6 5 4 3 3 3 4 5 6 6 7 8 9 10 12 14 15 16 16 17 18 19 20 21 22 24 25 27 28 29 30 32 33 31 30 29 30 30 31 34 35 36 38 39 40 40
33 31 29 27 24 22 21 19 17 17 17 17 17 20 23 25 25 26 26 26 26 24 22 23 25 25 23 21 19 18 16 15 13 12 10 9 8 7 6 5 5 4 3 2 2 2 3 4 5 6 7 7 9 10 12 13 13 14 16 17 18 19 19 21 22 24 25 27 28 29 30 32 32 30 28 28 29 29 31 33 35 38 40 40 40
33 31 30 28 26 24 22 20 18 17 17 18 18 19 22 24 25 26 27 27 28 27 25 25 25 25 23 21 20 18 17 15 14 12 11 9 8 7 6 5 5 4 2 1 1 1 2 3 4 5 6 6 7 8 9 10 11 13 14 15 17 17 18 20 21 23 24 26 27 28 29 30 31 31 29 27 27 28 28 30 33 36 38 40 41
34 33 32 29 28 27 24 21 19 18 18 18 18 18 20 23 25 26 28 28 29 29 28 27 26 24 23 22 21 19 18 16 15 13 12 10 9 7 6 5 4 3 2 1 1 1 2 2 3 4 5 6 7 8 8 9 10 12 13 14 15 16 17 18 20 21 23 24 26 26 27 28 29 30 30 28 26 26 26 27 29 31 33 37 40
34 33 33 32 30 28 25 23 21 20 20 19 19 19 20 22 25 26 28 28 29 29 29 28 26 24 23 21 21 19 18 17 16 14 13 11 9 8 7 5 4 3 2 2 2 2 2 2 3 4 5 5 6 7 8 8 9 10 11 12 13 15 15 17 18 20 22 23 25 25 26 27 27 28 29 29 27 26 25 25 26 27 28 31 34
34 34 35 34 32 30 27 25 23 21 21 21 20 19 20 22 24 26 27 28 29 29 28 28 26 25 23 22 21 20 19 18 17 15 13 12 11 9 8 6 5 4 3 3 3 3 3 3 3 4 4 5 5 6 6 7 8 9 10 10 12 13 14 15 17 18 20 21 23 24 25 26 26 27 27 28 28 27 26 25 25 25 25 27 29
37 36 37 36 34 31 28 27 24 23 23 23 21 20 20 22 24 26 27 28 29 29 28 27 26 24 23 22 21 20 19 18 17 16 14 13 12 10 9 7 6 5 4 4 3 3 3 4 4 4 5 5 5 6 6 6 6 8 9 9 10 11 12 13 14 16 18 19 21 22 24 25 25 26 26 26 27 28 27 26 25 24 24 24 25
40 38 39 37 35 32 30 27 25 25 24 23 22 20 19 21 23 25 27 28 29 28 28 27 25 23 22 22 21 20 20 19 18 16 15 14 13 12 10 9 7 6 5 5 4 4 4 4 5 5 5 5 5 6 6 5 5 6 7 7 7 8 10 10 11 13 15 17 18 20 21 23 24 25 25 25 26 26 27 27 26 25 24 23 23
42 40 41 39 36 33 31 29 27 26 25 23 22 21 20 20 22 24 26 28 29 29 28 28 27 25 23 22 22 21 20 19 18 17 16 15 14 13 12 11 9 9 8 8 6 6 6 6 6 6 6 6 6 6 6 6 5 5 5 6 6 6 7 8 9 10 12 14 16 17 18 20 21 23 24 25 25 25 25 26 26 26 25 24 23
43 41 41 39 37 35 33 31 29 28 26 24 23 22 21 21 22 24 25 26 28 29 30 30 29 27 25 24 23 22 21 20 19 18 17 17 16 15 14 12 12 11 11 11 10 9 9 8 7 7 7 7 7 7 6 6 6 5 5 5 5 5 5 6 7 8 10 12 14 15 16 17 18 20 21 23 24 24 24 24 25 25 25 25 24
45 43 42 40 39 37 35 33 31 30 29 26 25 24 23 22 23 24 24 24 25 26 28 30 30 29 28 26 25 24 23 22 21 21 20 19 18 17 16 15 14 14 13 13 13 12 12 11 10 9 10 9 9 9 8 8 7 7 6 6 6 6 5 4 5 7 8 10 12 14 15 15 16 17 18 19 21 22 23 23 23 23 24 24 23
48 45 42 41 40 39 37 35 34 32 30 27 27 25 23 22 22 23 23 23 24 25 26 28 29 29 29 28 28 27 27 26 25 24 23 21 20 19 18 17 17 16 16 15 15 15 15 14 13 12 12 12 12 11 10 9 9 8 8 8 8 7 7 5 4 5 6 8 9 11 13 14 14 14 15 16 17 19 20 21 22 22 22 22 22
50 46 44 43 41 40 39 37 35 32 30 29 28 25 23 22 22 22 23 21 19 21 23 25 26 27 28 28 29 29 29 28 28 26 25 24 23 22 21 21 20 19 18 18 18 18 17 17 16 15 15 15 15 14 13 12 11 10 10 9 9 9 9 8 6 5 5 6 7 9 11 12 13 13 14 14 15 16 18 18 19 20 21 21 21
52 47 46 45 43 42 40 38 36 33 31 30 28 26 24 23 22 22 24 21 16 15 17 21 23 24 26 27 29 30 30 30 30 29 28 27 26 25 24 24 23 22 21 21 21 20 20 19 19 18 18 17 17 17 16 15 13 13 12 12 11 11 11 10 9 7 6 6 7 8 9 11 12 12 13 14 14 15 16 17 17 18 19 20 20
53 49 48 47 45 43 41 38 36 34 33 30 28 27 26 24 23 24 25 24 20 14 13 16 19 21 23 25 28 29 30 30 30 30 30 29 28 27 27 26 25 25 24 23 23 23 22 21 21 20 20 19 19 19 18 17 16 15 15 14 14 13 13 12 12 10 9 8 8 8 9 10 11 12 13 13 14 14 15 15 16 17 18 18 19
54 51 49 48 45 43 41 39 38 36 35 33 31 29 27 26 26 24 23 24 23 19 15 15 16 17 20 23 26 28 29 29 29 29 29 29 29 28 28 27 26 26 25 25 25 25 24 23 22 21 21 21 21 21 20 19 18 17 17 16 16 15 15 14 14 13 12 11 10 10 10 10 11 11 12 13 14 14 15 15 16 16 17 18 19
55 53 51 48 46 44 42 41 40 39 37 35 33 30 28 27 25 24 22 22 22 21 17 15 14 16 18 21 24 26 28 28 26 26 27 27 28 28 28 27 26 26 26 26 26 25 24 23 22 22 22 22 22 22 22 21 20 19 19 19 18 17 17 16 16 16 15 14 13 12 12 12 13 13 13 14 14 15 16 16 16 17 17 18 19
57 56 52 50 48 47 45 43 41 40 38 36 34 31 29 27 25 23 22 22 22 22 20 17 15 16 17 18 21 24 26 26 24 23 24 25 26 26 27 26 26 26 26 26 26 25 24 23 23 23 23 23 23 24 23 22 21 20 20 20 20 19 18 18 18 18 17 17 16 15 15 15 15 15 15 15 15 16 17 18 18 18 19 19 20
59 58 55 53 51 49 47 45 42 40 39 37 35 32 31 29 27 25 24 23 23 22 21 20 18 17 17 17 19 22 24 25 24 22 22 23 24 25 26 26 25 25 26 26 26 25 24 23 23 23 23 24 25 24 24 23 22 22 22 22 22 22 20 20 20 20 20 19 19 18 17 17 17 17 17 17 17 18 19 20 20 20 20 20 21
60 59 56 54 53 50 48 45 42 40 39 37 35 34 32 30 28 26 25 24 24 23 22 22 21 20 18 18 19 20 21 23 23 22 22 22 23 24 25 25 25 25 25 26 26 25 24 24 24 24 24 25 26 25 25 24 23 23 24 24 24 24 23 22 21 21 21 21 21 20 20 20 19 19 19 19 19 20 20 21 22 22 23 23 22
62 60 57 56 54 50 47 44 42 40 39 38 36 35 33 31 29 28 26 25 24 24 24 23 23 23 21 20 20 20 22 22 23 23 22 22 22 23 24 25 26 26 25 25 26 26 25 25 25 25 26 26 27 27 26 25 25 25 25 26 26 26 25 25 24 23 23 23 23 22 22 22 22 22 22 21 22 22 22 23 24 24 25 25 25
65 61 59 59 56 51 46 45 44 42 41 39 37 36 33 30 28 27 25 24 24 25 25 25 25 25 24 23 23 23 23 23 23 23 23 22 22 22 23 25 26 26 26 26 26 27 27 27 26 27 27 28 28 29 28 27 26 26 27 28 28 28 27 27 27 26 26 25 25 24 24 24 24 24 24 23 24 24 24 25 25 26 26 27 27
68 64 63 60 56 51 47 45 48 47 45 43 41 39 36 32 29 28 25 24 26 26 27 27 27 27 28 27 27 26 26 25 25 25 24 23 23 22 22 24 25 26 26 26 26 27 28 28 28 29 29 30 30 30 30 29 28 28 28 29 29 29 29 29 29 29 28 27 27 27 26 26 26 26 26 25 25 26 26 26 27 28 28 28 28
70 67 65 61 57 54 48 45 51 52 47 44 43 41 38 35 34 35 33 30 30 31 31 30 30 30 31 31 30 29 29 28 28 27 26 25 24 23 23 23 24 25 26 26 26 27 27 28 29 30 31 31 31 31 32 31 30 30 31 30 31 31 31 31 30 30 30 30 29 29 28 28 28 28 28 27 27 27 28 28 28 29 30 30 30
74 71 67 65 62 59 51 45 50 54 49 45 43 41 40 37 36 40 41 38 37 37 36 34 34 34 34 33 33 32 32 32 30 29 29 27 26 26 25 24 24 24 24 26 26 26 26 27 28 30 31 32 32 32 32 32 32 32 33 33 32 32 33 33 32 31 31 32 32 31 31 30 30 31 30 30 29 29 29 29 30 30 31 31 32
77 75 73 70 69 67 61 53 53 56 54 50 46 44 43 40 38 42 45 42 40 40 38 36 38 39 38 35 34 34 34 34 33 32 31 30 29 28 27 27 25 24 24 25 26 26 25 25 26 28 30 31 32 32 32 32 32 33 34 34 34 34 34 34 33 33 33 33 34 34 33 33 33 33 32 32 31 31 31 31 31 31 32 32 33
79 78 77 75 74 73 70 64 60 57 54 53 52 49 46 44 43 46 47 44 42 41 39 38 39 41 40 38 36 36 36 36 36 35 34 33 32 31 30 29 28 26 25 25 26 26 27 26 26 27 28 30 31 32 32 32 32 32 33 35 36 35 35 35 34 34 34 35 36 36 35 35 35 34 34 34 34 33 33 32 32 32 33 33 33
82 81 80 78 77 76 73 69 65 59 55 54 57 57 54 50 48 49 48 46 45 45 44 43 41 39 39 39 38 37 37 38 37 37 37 36 35 33 32 31 30 29 27 26 26 27 28 28 27 27 28 30 31 32 32 33 33 33 33 35 36 36 36 36 35 35 35 35 35 36 36 36 36 36 35 35 36 36 35 34 34 34 34 34 33
86 84 83 81 80 78 73 71 71 67 61 58 59 61 59 55 52 51 50 48 48 50 49 47 44 40 39 40 40 39 39 39 39 39 38 37 37 35 33 32 31 30 29 27 27 28 28 28 29 29 29 30 31 32 33 34 34 34 34 35 36 36 36 37 36 36 36 35 35 35 35 35 36 35 36 36 37 37 37 36 35 34 34 33 33
90 87 85 84 83 81 77 75 74 71 68 65 63 62 61 58 55 53 51 51 51 52 52 51 49 44 40 39 40 40 40 40 40 40 39 38 37 36 35 33 32 31 31 30 29 29 29 29 29 29 29 30 31 32 33 34 35 35 36 36 37 37 37 37 37 37 37 37 37 37 36 35 34 33 34 35 36 36 35 34 33 33 32 31 32
94 90 89 87 86 84 82 80 77 73 71 69 68 66 63 60 58 55 54 55 55 54 55 55 53 49 44 41 40 41 41 42 42 41 40 39 38 37 35 34 34 33 32 32 31 30 30 30 30 30 30 30 31 32 33 34 35 35 36 37 38 38 38 38 38 38 38 38 39 39 38 38 36 34 33 33 32 32 32 31 31 31 31 30 32
97 94 92 90 88 87 85 83 80 77 75 72 70 68 65 63 61 59 58 58 59 60 60 57 55 53 50 48 46 44 43 43 43 43 41 39 38 38 37 36 36 35 34 34 33 33 32 32 31 31 31 31 32 32 33 34 35 36 36 38 39 40 40 40 39 39 38 39 39 39 39 38 37 36 34 32 30 30 30 30 30 31 31 32 32
100 98 95 92 90 89 89 87 84 81 79 77 73 70 68 66 65 63 62 62 62 63 61 58 56 55 54 53 51 48 45 45 45 44 42 41 40 39 38 38 38 37 36 36 35 34 33 33 33 33 33 32 33 33 34 34 35 36 37 38 39 41 41 41 40 40 39 39 39 39 39 38 38 38 37 35 33 32 31 31 30 31 31 31 31
104 102 99 95 92 90 91 90 87 84 82 80 77 73 71 70 68 66 67 67 65 63 60 58 57 56 55 55 53 49 46 46 46 45 44 42 41 40 40 40 40 39 39 38 37 36 35 35 35 35 35 34 34 35 35 35 35 36 37 39 40 41 42 42 42 41 41 40 40 40 39 39 38 37 37 37 37 36 34 33 33 32 32 31 31
106 104 102 99 95 93 92 92 90 87 85 83 80 77 75 72 71 70 71 71 69 66 62 61 60 58 55 53 52 50 47 46 46 46 45 43 42 41 41 41 41 41 41 40 39 38 37 37 37 37 37 37 37 37 37 37 36 37 38 39 40 41 42 42 43 43 42 41 41 41 41 40 38 36 36 37 38 38 38 37 37 36 36 35 34
108 106 103 101 98 95 93 92 91 89 88 85 82 80 77 75 74 74 74 72 71 68 66 64 63 61 58 54 52 51 49 47 46 46 46 44 43 43 43 43 43 43 42 41 40 40 39 39 39 39 40 40 39 39 39 38 37 37 38 39 40 41 41 42 43 43 42 42 42 42 41 40 38 36 36 37 38 39 39 39 39 39 38 38 38
109 108 105 103 101 98 95 93 91 90 89 87 84 81 80 78 78 77 76 74 72 70 68 67 65 64 61 57 54 53 51 49 48 47 47 46 45 45 46 46 45 43 42 42 41 41 42 41 41 41 42 42 42 41 40 39 38 38 39 39 41 41 41 41 42 42 42 43 43 43 42 40 38 37 37 38 39 40 40 41 41 40 40 40 40
111 110 108 105 103 101 98 95 92 89 89 88 85 82 81 81 81 80 77 75 73 71 71 69 67 65 62 58 55 53 52 51 50 49 49 48 47 47 47 46 45 44 44 44 43 43 43 44 44 44 44 44 43 42 40 39 39 40 40 40 41 41 41 41 42 42 42 42 42 42 41 40 39 39 39 39 40 41 41 42 42 42 42 42 41
114 111 109 106 104 103 101 99 95 90 88 87 85 83 83 83 84 82 79 77 75 73 73 71 67 64 62 58 55 54 53 52 51 51 51 50 49 48 48 47 46 46 46 46 46 45 45 46 46 46 45 44 43 43 42 41 40 41 41 41 41 42 42 42 42 42 42 42 41 41 40 40 40 40 40 40 40 41 42 42 42 43 43 42 42
113 110 109 107 105 104 102 101 99 95 90 86 85 84 83 84 85 84 82 79 77 75 74 72 68 65 62 60 57 56 55 54 53 52 53 52 51 50 49 48 47 47 48 49 48 48 48 48 48 47 46 44 43 43 43 42 41 41 41 42 42 43 43 43 43 42 41 41 41 41 41 41 40 40 40 40 40 40 40 41 42 42 42 42 41
112 109 108 107 106 104 102 101 101 99 95 90 87 85 84 85 85 85 83 81 79 77 75 73 71 67 63 62 61 60 58 56 54 54 54 54 53 51 51 50 49 49 50 51 51 51 51 51 50 48 46 45 44 44 44 43 41 41 42 42 43 43 43 43 43 42 41 42 42 42 42 42 41 41 40 40 39 39 40 40 41 41 41 41 41
114 110 109 108 107 105 103 101 100 100 97 93 89 87 86 86 86 85 84 82 80 78 76 74 72 69 66 63 63 62 60 58 55 54 53 52 52 51 51 51 51 52 53 53 54 54 55 53 51 49 47 46 45 44 43 43 42 41 41 42 42 43 43 43 43 41 41 42 43 43 43 43 42 42 41 41 40 39 39 40 40 40 40 41 42
116 112 110 110 108 106 104 103 101 99 97 94 90 86 85 86 86 85 84 83 82 80 77 75 73 70 68 66 64 63 59 55 51 50 49 50 52 54 55 55 55 56 56 56 57 58 57 55 53 50 48 47 46 44 43 44 43 42 41 41 41 42 42 44 44 43 43 43 43 43 44 44 43 43 42 41 41 40 40 40 40 40 41 42 43
Wind_Direction
261 266 276 279 283 302 314 305 258 214 202 190 178 177 173 167 170 175 178 177 176 174 168 161 154 151 148 142 134 130 129 128 125 122 118 113 112 111 109 107 103 96 87 81 78 76 74 72 69 67 63 56 51 46 42 39 38 37 37 37 37 38 39 40 41 40 38 38 42 45 47 47 45 43 41 40 40 42 42 42 41 40 38 37 33
252 260 268 271 272 288 301 287 242 219 211 195 180 177 174 169 171 175 180 181 180 179 174 165 158 156 153 146 139 133 131 132 130 127 122 117 116 115 114 110 105 98 90 85 80 74 69 68 65 61 57 52 46 42 39 37 36 36 36 36 36 36 38 40 40 40 38 37 39 43 45 45 44 43 42 42 43 45 46 45 44 43 41 39 36
245 252 261 264 261 266 280 266 237 224 218 202 186 178 174 172 173 177 181 183 184 183 179 172 165 161 158 151 143 135 132 134 134 131 126 121 120 119 118 114 109 104 95 87 81 72 65 63 60 54 50 48 44 40 37 35 34 34 35 36 36 36 38 39 40 39 38 37 37 41 44 44 44 43 43 45 47 48 46 45 43 41 39 36 34
241 247 254 255 247 244 256 251 236 227 220 206 189 180 176 174 175 178 181 184 186 186 182 178 173 166 163 156 147 138 134 135 136 135 130 125 123 121 118 115 110 104 95 85 77 71 63 59 55 50 48 46 42 38 35 33 32 32 35 36 36 37 38 39 40 40 38 37 36 39 43 44 44 44 45 47 49 49 46 44 42 40 38 36 34
239 243 246 244 238 231 235 238 232 225 218 206 191 182 179 177 178 179 182 185 186 186 185 182 176 170 166 160 152 144 138 136 137 136 133 128 125 122 118 113 107 101 91 82 74 70 63 57 54 49 45 44 40 36 33 32 31 31 34 36 37 37 38 39 40 40 39 38 36 37 41 44 44 45 46 48 49 49 46 45 44 43 41 39 36
235 238 238 239 235 226 223 227 224 219 213 206 195 186 183 180 180 181 183 185 186 187 187 183 176 171 170 165 158 151 143 138 138 138 136 133 129 125 121 115 109 99 88 81 74 69 62 56 53 48 43 41 37 33 30 29 29 30 33 36 37 37 38 40 40 39 39 38 36 36 38 42 45 46 47 48 49 49 46 44 44 44 43 42 40
228 231 233 236 233 225 220 218 217 215 210 205 198 191 187 183 181 183 184 184 185 187 187 180 175 174 174 170 164 157 148 143 141 140 138 136 134 131 127 123 116 107 95 84 75 68 60 54 49 45 40 37 34 29 25 26 28 29 33 36 37 38 38 39 40 39 39 38 37 36 36 40 44 47 47 49 49 47 44 42 42 43 43 43 42
222 226 231 233 231 225 221 216 214 214 208 204 201 195 190 186 184 184 184 184 184 187 186 179 177 177 177 173 167 159 154 150 146 143 142 141 141 141 138 134 126 119 110 95 81 68 59 53 48 42 38 34 29 23 19 22 26 29 33 36 38 38 38 39 39 39 38 38 38 36 35 37 42 46 47 48 49 46 42 41 41 43 44 44 43
220 224 228 229 229 226 221 216 213 212 208 203 201 199 193 189 187 186 185 184 185 188 188 182 181 181 179 176 170 164 161 158 154 151 150 149 149 151 153 151 145 137 125 104 84 66 54 47 42 35 33 27 22 17 16 20 25 29 34 37 38 38 38 37 37 38 38 38 38 36 34 35 38 44 46 46 46 44 42 41 41 41 43 45 46
221 223 225 224 225 223 220 217 211 210 208 204 201 200 196 191 188 188 187 185 186 190 191 188 186 184 182 178 173 169 167 165 163 161 159 158 158 159 162 164 161 157 149 124 87 61 48 38 32 25 20 18 17 15 16 20 24 29 35 37 38 38 37 36 35 36 37 37 37 36 35 33 34 38 42 43 43 42 43 43 42 41 43 46 49
222 221 221 220 221 219 219 216 212 209 209 206 204 201 198 194 190 188 188 188 188 190 193 193 190 187 184 180 176 174 172 171 170 169 169 168 166 164 166 169 168 166 166 156 105 38 30 25 19 17 12 11 14 16 19 23 26 29 35 37 37 37 36 34 33 33 34 35 35 35 34 33 32 34 38 41 41 40 42 44 44 42 42 46 49
221 220 219 218 218 217 217 216 214 211 209 206 205 201 197 196 193 190 190 191 191 192 193 195 194 192 188 183 181 180 178 178 178 177 177 175 172 171 172 174 174 172 180 196 231 309 346 360 2 4 5 6 10 14 19 25 27 29 34 37 37 37 35 34 32 31 32 34 34 34 34 32 30 31 34 37 38 38 39 43 45 44 41 43 47
220 221 219 216 216 215 214 214 214 213 209 206 205 201 195 194 195 193 192 193 195 195 195 196 197 197 194 190 187 186 185 185 185 185 183 181 179 179 179 177 177 181 192 216 244 273 303 324 339 349 355 359 3 9 15 21 26 28 31 36 36 35 35 34 32 30 30 32 33 33 33 32 30 30 31 33 35 36 36 38 42 42 40 39 42
218 221 218 214 214 212 210 210 213 214 211 207 205 201 195 192 193 194 194 196 198 198 198 198 199 199 197 195 193 191 192 191 190 190 189 188 188 186 184 180 177 185 199 218 242 269 288 306 318 328 338 347 353 1 9 16 20 22 26 32 35 34 33 33 32 29 27 29 32 32 31 31 30 29 29 30 32 33 33 33 35 37 38 38 37
217 219 217 214 213 210 209 209 211 211 209 208 205 201 197 194 193 194 196 198 200 201 203 203 202 201 199 198 196 195 197 196 195 195 194 194 195 193 190 186 183 189 205 220 238 260 276 291 300 311 320 329 340 348 357 5 12 15 18 23 29 33 32 30 31 28 23 24 28 31 30 30 30 29 28 29 30 31 31 31 31 31 33 35 35
216 217 216 214 213 210 210 211 210 209 206 205 203 198 196 195 194 195 197 199 202 203 206 209 208 206 203 200 199 199 201 202 200 200 201 202 202 201 198 196 196 201 216 229 238 251 266 279 289 299 308 316 326 334 341 349 356 2 7 11 18 26 29 28 27 26 22 18 21 27 29 29 30 30 29 28 29 29 30 29 29 28 27 27 29
214 215 214 213 212 211 211 211 211 209 205 203 202 198 195 195 196 197 198 200 203 204 206 210 213 212 209 206 204 204 204 205 205 205 207 209 209 209 208 207 208 215 226 235 242 250 261 272 282 292 300 306 313 320 325 330 334 341 349 354 2 12 21 23 21 22 20 14 12 18 24 26 28 30 30 30 29 29 28 28 27 27 26 24 22
214 213 212 211 210 209 210 211 210 208 206 203 202 199 194 193 196 199 200 201 205 207 208 211 214 215 214 213 212 212 211 210 210 210 211 213 214 215 216 217 219 224 231 239 246 252 259 268 278 286 291 295 301 307 312 315 316 319 321 328 338 347 360 14 15 15 17 13 7 7 14 20 24 27 29 29 29 29 28 27 26 25 25 25 23
214 212 210 209 209 209 209 210 209 207 205 204 201 198 194 192 195 198 200 202 205 209 212 214 216 217 217 218 218 218 218 217 217 217 217 217 217 219 221 224 227 230 234 241 248 253 259 265 272 277 282 286 291 295 299 302 305 306 306 307 312 318 327 346 4 8 10 11 5 1 3 10 15 20 23 25 25 26 26 25 25 23 22 22 23
214 212 209 209 209 210 210 210 209 207 206 206 203 200 195 192 196 200 201 202 204 208 214 218 219 219 218 218 219 220 220 221 221 221 222 222 222 224 225 227 230 233 236 241 247 252 257 263 268 272 275 280 284 287 290 293 296 298 299 298 297 300 305 313 330 349 358 3 3 358 356 359 4 8 13 16 17 18 20 21 21 20 20 19 19
214 212 210 210 210 210 210 210 210 209 209 209 206 204 201 195 195 199 203 206 207 208 212 219 224 225 222 219 219 220 220 221 222 223 225 227 229 230 231 232 233 235 237 242 246 251 255 259 265 268 271 275 279 283 286 288 290 293 295 295 293 292 293 298 303 315 330 342 350 352 350 350 354 357 360 4 7 9 11 14 16 16 15 15 15
212 210 210 211 210 210 210 210 210 211 212 211 208 207 206 201 197 200 205 210 212 210 210 215 223 228 230 227 225 224 223 223 223 224 225 227 230 233 235 236 237 238 239 243 247 251 254 258 263 266 268 272 276 280 283 285 287 289 291 292 292 291 290 291 294 297 302 312 324 334 339 342 345 348 350 353 357 360 2 6 9 11 11 10 10
209 207 209 211 211 210 211 211 211 212 213 212 209 209 209 207 204 202 206 211 214 213 207 210 218 226 231 232 231 231 230 229 228 227 227 228 230 232 234 237 238 239 241 244 248 252 255 259 262 265 267 270 273 277 280 283 285 287 288 289 290 291 291 289 289 291 292 295 302 310 319 327 333 338 342 344 347 351 354 357 360 2 4 4 3
210 206 208 212 212 211 211 213 212 213 213 211 210 209 210 212 211 207 208 213 217 218 213 207 211 221 229 233 235 236 237 237 236 234 232 232 232 233 235 237 239 240 242 245 249 253 256 259 262 265 266 268 270 273 277 280 283 285 287 289 289 290 291 291 289 289 289 289 291 296 301 308 315 322 328 332 335 338 342 345 348 350 353 355 355
213 208 208 213 213 212 213 213 214 213 213 212 211 210 211 215 215 213 213 217 220 224 225 217 209 212 223 231 235 239 242 244 244 242 239 237 236 237 239 240 241 242 244 246 250 253 256 258 261 263 264 266 268 271 274 278 281 284 286 288 289 290 290 291 291 289 288 288 287 288 291 295 300 305 311 317 321 324 327 330 334 337 339 342 345
214 209 210 214 214 213 214 214 214 214 214 214 213 212 213 215 215 216 218 219 221 225 230 230 221 215 219 227 233 238 243 247 249 247 245 242 241 241 242 244 245 245 246 248 251 254 256 258 260 262 263 265 267 270 273 277 280 283 285 287 288 289 289 290 290 290 289 288 286 285 286 288 291 295 299 304 308 313 316 318 321 325 329 332 335
214 212 212 214 213 213 215 215 213 214 216 216 216 214 214 215 214 216 220 221 222 226 230 234 232 224 221 225 231 236 242 248 251 250 248 246 245 245 245 246 247 248 249 251 254 256 258 260 261 262 263 265 266 269 272 275 279 281 283 284 285 286 287 287 287 288 288 288 287 286 285 285 287 289 293 296 300 304 307 310 313 316 320 323 327
213 214 213 213 214 214 217 216 213 215 218 218 217 217 216 216 216 217 221 222 223 226 229 234 238 234 227 226 230 235 240 246 251 252 249 247 246 247 248 249 249 250 250 252 255 258 259 259 261 262 263 264 266 268 270 273 276 278 280 280 282 284 285 285 285 286 287 287 288 287 286 285 286 287 289 292 295 298 301 304 307 310 313 317 320
209 213 213 213 213 214 217 219 216 217 221 220 219 219 217 217 219 220 222 225 227 229 231 236 241 242 237 231 230 233 237 241 247 251 251 249 248 247 249 251 252 253 252 253 254 256 257 257 258 260 262 263 265 268 269 271 273 275 277 279 281 283 284 285 285 286 286 287 288 288 288 287 287 287 288 290 292 295 297 300 302 305 309 312 316
204 209 213 213 211 210 213 220 221 219 221 222 222 222 222 221 224 227 229 232 234 234 235 240 245 248 246 241 235 233 235 238 243 247 250 252 251 249 249 251 253 256 256 255 254 255 257 257 258 259 260 262 265 267 269 271 272 274 276 278 280 282 284 285 286 287 288 289 289 290 289 289 289 289 289 290 292 293 295 298 300 303 306 309 312
202 206 211 212 210 209 211 218 224 222 219 219 220 221 220 220 223 228 234 243 245 242 239 241 245 249 252 251 246 239 237 239 241 244 247 250 252 252 250 250 253 255 257 258 258 258 259 261 262 262 264 265 267 269 271 273 274 275 277 278 280 282 284 285 287 288 289 290 290 290 291 291 291 291 291 292 293 295 297 298 301 303 305 308 310
200 204 209 209 207 208 210 217 226 225 221 219 219 218 216 214 215 217 220 229 241 247 247 246 245 246 249 252 252 249 244 242 242 244 246 248 251 252 252 251 251 254 258 260 261 262 263 265 266 268 270 272 273 274 275 276 277 277 279 279 280 282 283 284 286 287 289 289 289 290 291 291 291 292 293 294 295 296 298 300 302 303 305 307 309
199 201 206 207 204 203 203 209 219 223 223 222 219 218 216 214 215 216 214 216 226 235 242 246 246 245 244 244 248 251 250 248 246 246 246 247 248 251 252 252 252 253 257 260 262 264 265 266 269 272 274 277 279 279 279 279 280 280 280 281 282 283 283 285 286 287 288 288 289 289 290 290 291 292 293 294 296 297 298 300 301 303 304 306 307
200 200 205 207 205 203 201 200 206 213 218 221 219 217 216 215 217 220 219 218 220 223 228 234 238 239 238 237 240 245 249 250 250 248 247 247 248 250 252 254 254 253 254 258 262 265 267 267 269 272 275 277 279 280 281 281 281 281 282 283 283 284 284 285 286 287 287 288 288 289 290 290 290 291 292 294 295 296 297 298 300 301 303 304 306
203 201 204 207 207 207 206 204 205 208 213 219 220 218 216 214 215 219 221 222 221 221 220 222 226 230 230 230 234 240 244 248 250 250 250 249 250 250 252 255 256 256 255 256 260 263 266 267 268 269 271 274 277 280 281 281 281 281 281 282 283 283 283 284 286 287 287 287 288 288 289 290 290 291 292 293 294 295 295 296 298 300 301 302 304
206 203 205 207 209 209 209 208 208 207 208 214 219 218 217 215 214 216 220 222 220 220 220 220 222 226 227 227 230 235 240 244 247 249 250 251 252 253 253 255 258 260 260 260 261 264 268 271 272 272 272 274 277 280 282 284 283 281 280 280 282 283 284 285 285 286 287 287 288 288 288 289 290 292 293 294 294 294 294 296 297 298 299 301 302
209 206 206 208 210 211 210 209 209 207 206 210 215 217 217 217 216 216 220 223 221 220 222 224 225 228 232 231 231 234 239 242 245 247 249 251 253 255 256 257 259 262 265 265 266 268 271 274 276 278 279 280 282 284 286 288 288 287 284 282 283 284 285 285 285 284 285 286 287 288 289 290 293 295 295 295 295 295 295 296 297 297 298 299 301
211 208 208 208 210 211 211 211 211 210 209 212 215 216 216 217 218 219 221 223 222 222 225 226 226 229 233 235 235 238 241 243 245 247 249 251 254 256 258 260 260 262 265 267 268 270 273 275 278 281 284 286 287 288 289 291 291 291 289 286 286 285 285 285 284 284 284 284 285 286 288 291 295 298 298 297 297 297 298 298 297 296 296 298 300
214 211 210 210 211 212 213 213 214 213 212 213 216 216 215 217 219 221 222 223 225 225 225 227 229 231 233 235 238 241 244 246 247 249 250 252 255 257 259 261 261 261 263 266 268 270 273 276 279 282 285 287 288 289 291 292 293 293 290 288 288 287 286 285 285 284 284 284 284 284 285 288 291 295 297 298 299 299 299 298 297 296 296 297 298
216 213 212 212 212 212 213 214 215 214 214 215 215 215 215 217 219 220 221 223 226 227 226 228 231 234 236 237 238 242 246 248 250 251 252 254 256 258 259 260 261 262 263 265 267 270 273 276 279 282 284 286 287 289 290 292 293 294 292 289 288 287 288 287 287 286 285 284 284 284 285 286 287 289 292 296 299 300 299 297 297 296 295 296 295
217 216 214 213 213 214 214 215 215 215 216 217 217 216 216 217 219 221 221 223 225 227 228 230 233 237 239 239 239 241 246 249 252 253 254 255 257 258 260 261 263 263 264 265 268 270 273 276 278 281 283 285 286 288 290 292 293 295 295 292 289 289 290 290 288 286 285 284 284 285 285 285 285 286 288 291 294 296 297 296 296 296 295 293 290
217 216 215 214 214 215 216 216 216 215 216 218 219 218 217 218 219 221 223 225 226 227 230 233 236 239 241 241 240 241 245 248 251 253 255 256 258 260 261 262 264 265 266 267 269 272 274 276 278 280 282 284 286 287 289 292 295 297 298 295 292 292 293 291 289 287 286 285 284 284 284 285 285 286 288 289 290 291 292 293 294 295 294 291 288
217 216 216 215 214 214 217 218 217 216 216 217 219 220 220 220 220 222 224 226 227 229 232 235 237 239 240 240 241 243 245 247 249 252 255 257 258 260 261 262 264 265 267 269 271 273 276 277 279 280 282 283 284 286 289 293 297 300 301 299 297 296 296 294 291 290 288 286 285 285 285 286 287 289 290 289 289 289 289 290 291 291 290 290 288
218 217 216 216 214 214 217 219 218 218 218 218 218 220 221 222 222 224 225 226 227 229 231 234 236 238 240 242 243 245 246 246 247 252 255 256 257 259 260 262 264 266 268 270 272 275 276 278 279 281 282 284 285 287 290 294 298 300 301 300 300 300 299 297 295 294 291 289 287 287 287 289 290 289 288 287 287 287 287 288 288 289 289 289 289
218 218 217 216 215 214 216 218 219 219 219 219 218 219 221 222 224 225 226 227 228 229 231 233 235 238 241 243 244 244 244 245 249 252 252 254 257 258 259 262 267 269 271 271 272 274 277 278 279 280 282 284 286 288 291 295 297 299 300 301 303 303 302 301 298 296 294 292 290 291 291 291 290 288 286 284 284 285 285 285 286 286 287 288 289
216 217 217 217 216 215 215 217 219 219 219 219 219 219 220 223 224 225 226 228 229 230 231 233 235 237 240 241 242 242 243 246 249 249 250 254 257 257 259 264 269 271 271 271 272 274 276 277 278 280 282 284 287 289 292 294 295 297 300 303 304 304 303 302 300 298 296 295 294 294 293 291 289 287 285 284 283 283 283 283 284 285 285 286 287
215 216 217 217 217 216 215 215 218 219 218 218 219 219 220 223 225 226 227 227 228 229 232 233 235 236 238 238 239 240 242 246 248 249 252 256 257 257 261 265 268 269 270 270 272 273 274 275 277 279 281 284 286 288 289 291 293 296 299 302 303 304 304 304 302 301 299 297 294 292 290 289 288 286 286 285 284 284 284 284 284 284 284 285 286
215 215 216 216 217 217 216 215 217 218 218 218 218 219 220 222 224 226 227 227 228 229 231 233 234 235 237 238 240 242 244 246 247 250 254 257 257 258 261 264 265 266 268 269 270 271 272 273 275 278 280 282 284 285 287 289 292 295 297 299 302 305 306 306 304 303 301 297 293 290 289 288 287 286 286 286 285 285 285 285 284 284 284 285 285
215 216 217 217 217 218 217 216 216 218 219 219 219 219 220 222 224 226 227 228 229 230 231 233 234 235 236 239 242 244 245 247 249 251 254 256 257 259 261 263 264 265 266 267 268 269 269 271 272 274 276 278 279 281 284 287 289 291 294 298 302 305 306 306 306 304 301 296 292 290 288 287 286 286 286 285 286 286 285 285 285 285 285 285 284
214 215 217 218 219 219 219 217 217 218 219 220 220 220 221 223 224 226 227 228 229 230 231 233 235 236 237 239 242 244 246 248 249 251 253 255 259 262 264 265 265 265 264 265 265 265 266 267 269 270 272 274 276 278 281 283 285 288 292 296 300 303 307 307 306 303 299 294 291 289 288 288 287 287 286 286 286 286 286 286 286 287 286 286 285
213 214 216 219 219 220 220 220 219 218 218 219 220 219 219 221 224 226 227 228 229 230 231 233 234 235 236 237 240 243 246 249 251 253 256 261 267 269 269 267 265 263 263 263 263 263 264 265 266 268 270 272 274 276 278 280 282 286 290 294 298 302 305 307 306 302 296 292 290 289 288 288 288 288 288 288 288 289 289 288 288 288 287 286 286
Height
11007 11008 11008 11008 11007 11006 11007 11007 11006 11006 11005 11005 11005 11006 11007 11009 11011 11013 11015 11017 11019 11020 11022 11023 11025 11026 11028 11029 11029 11030 11031 11031 11032 11032 11032 11033 11033 11034 11034 11034 11035 11035 11035 11035 11035 11035 11034 11034 11033 11033 11033 11032 11031 11030 11029 11027 11025 11024 11022 11021 11019 11017 11015 11013 11012 11011 11009 11007 11005 11002 11000 10999 10997 10995 10993 10992 10990 10989 10988 10986 10984 10983 10981 10980 10979
11006 11006 11007 11007 11006 11006 11006 11007 11007 11006 11005 11005 11005 11005 11007 11008 11010 11012 11015 11017 11018 11020 11022 11024 11025 11027 11028 11029 11030 11030 11031 11032 11032 11033 11033 11034 11035 11035 11036 11036 11036 11037 11037 11037 11037 11036 11036 11036 11036 11035 11035 11034 11033 11032 11030 11029 11028 11026 11025 11023 11021 11019 11017 11016 11015 11013 11011 11009 11007 11005 11003 11001 10999 10997 10996 10994 10992 10991 10989 10988 10986 10985 10983 10981 10980
11004 11005 11006 11006 11005 11005 11006 11007 11007 11006 11006 11005 11005 11005 11006 11008 11010 11012 11014 11016 11018 11021 11023 11024 11026 11027 11028 11029 11030 11031 11032 11032 11033 11033 11034 11035 11036 11036 11037 11037 11038 11038 11038 11039 11038 11038 11038 11038 11038 11037 11036 11035 11034 11033 11032 11031 11030 11028 11026 11025 11023 11021 11019 11018 11017 11016 11014 11012 11009 11007 11005 11003 11001 11000 10998 10996 10995 10993 10991 10990 10988 10986 10984 10982 10981
11002 11003 11004 11005 11004 11004 11005 11006 11007 11006 11006 11006 11005 11006 11007 11008 11009 11011 11014 11016 11018 11021 11023 11024 11026 11027 11028 11030 11031 11031 11032 11033 11033 11034 11035 11036 11036 11037 11038 11038 11039 11039 11039 11039 11039 11039 11039 11039 11039 11039 11038 11037 11036 11035 11034 11033 11031 11029 11028 11027 11025 11023 11022 11021 11020 11018 11017 11014 11012 11010 11008 11006 11004 11002 11001 10999 10997 10996 10994 10992 10990 10988 10986 10984 10981
11000 11002 11003 11004 11003 11003 11004 11006 11006 11006 11006 11006 11006 11006 11006 11007 11009 11011 11013 11016 11018 11021 11023 11024 11026 11027 11028 11030 11031 11032 11032 11033 11034 11035 11035 11036 11037 11037 11038 11038 11039 11039 11040 11040 11040 11040 11041 11041 11040 11040 11040 11039 11037 11036 11035 11034 11033 11031 11030 11028 11027 11025 11025 11024 11022 11021 11019 11017 11015 11012 11010 11008 11007 11005 11003 11002 11000 10999 10997 10995 10993 10991 10988 10986 10983
10998 11000 11001 11002 11002 11002 11004 11005 11006 11006 11006 11006 11006 11005 11006 11007 11008 11010 11013 11015 11018 11020 11022 11024 11025 11027 11028 11029 11030 11032 11033 11034 11035 11035 11036 11037 11037 11038 11039 11039 11040 11040 11040 11041 11041 11042 11042 11042 11041 11041 11041 11040 11038 11037 11037 11036 11034 11033 11031 11030 11029 11028 11027 11026 11024 11023 11021 11019 11017 11015 11013 11011 11009 11007 11006 11005 11003 11002 11000 10998 10996 10994 10991 10989 10986
10996 10998 11000 11001 11001 11002 11002 11004 11005 11005 11005 11005 11005 11006 11006 11007 11008 11010 11013 11015 11018 11020 11022 11023 11025 11026 11027 11028 11030 11032 11033 11034 11035 11036 11037 11037 11038 11039 11039 11040 11040 11041 11041 11042 11042 11042 11042 11042 11042 11041 11041 11040 11040 11039 11038 11037 11036 11034 11033 11032 11031 11030 11029 11028 11026 11025 11023 11022 11020 11018 11016 11014 11012 11010 11008 11007 11006 11004 11003 11001 10999 10997 10994 10992 10989
10994 10996 10998 10999 11000 11000 11001 11002 11003 11004 11005 11005 11005 11006 11006 11007 11008 11010 11012 11015 11018 11020 11021 11023 11024 11025 11027 11028 11030 11032 11033 11034 11035 11036 11037 11038 11039 11039 11040 11041 11041 11042 11042 11042 11043 11043 11043 11043 11043 11042 11042 11041 11041 11040 11039 11038 11037 11036 11035 11034 11033 11032 11031 11029 11028 11027 11025 11024 11022 11020 11018 11017 11014 11013 11011 11010 11009 11007 11005 11003 11001 10999 10997 10995 10991
10992 10993 10995 10997 10998 10999 10999 11000 11002 11003 11003 11004 11005 11005 11006 11007 11008 11010 11012 11014 11017 11019 11020 11022 11023 11024 11026 11028 11029 11031 11033 11034 11035 11036 11037 11038 11039 11040 11040 11041 11042 11042 11043 11043 11043 11044 11044 11044 11043 11043 11042 11042 11041 11041 11040 11039 11038 11038 11037 11036 11035 11033 11032 11031 11030 11029 11027 11026 11024 11022 11021 11019 11017 11016 11014 11013 11011 11010 11008 11006 11004 11002 11000 10997 10995
10989 10991 10993 10995 10996 10997 10998 10999 11000 11002 11002 11003 11004 11005 11005 11006 11008 11010 11012 11014 11016 11018 11019 11021 11022 11023 11025 11027 11029 11030 11032 11033 11035 11036 11037 11038 11039 11040 11041 11041 11042 11042 11043 11043 11044 11044 11044 11044 11044 11044 11043 11043 11042 11042 11041 11040 11040 11039 11038 11037 11036 11035 11034 11033 11032 11030 11029 11028 11026 11024 11023 11021 11020 11018 11017 11015 11013 11012 11011 11009 11007 11005 11002 11001 10999
10986 10988 10990 10992 10993 10995 10996 10998 10999 11000 11001 11002 11003 11004 11005 11006 11007 11009 11011 11013 11014 11016 11018 11019 11021 11023 11025 11027 11028 11030 11031 11033 11034 11035 11037 11038 11039 11040 11041 11041 11042 11043 11043 11044 11044 11044 11045 11045 11045 11044 11044 11043 11043 11042 11042 11041 11041 11040 11039 11038 11037 11036 11035 11034 11033 11032 11030 11029 11028 11026 11025 11023 11022 11021 11019 11017 11016 11015 11013 11012 11010 11008 11006 11005 11003
10983 10985 10987 10989 10991 10993 10995 10997 10998 10999 11000 11001 11002 11003 11004 11006 11007 11008 11010 11012 11013 11015 11016 11018 11020 11022 11024 11026 11028 11029 11030 11032 11033 11035 11036 11037 11038 11039 11040 11041 11042 11043 11043 11044 11044 11044 11044 11045 11045 11045 11044 11044 11043 11043 11042 11042 11041 11040 11040 11039 11038 11038 11037 11035 11034 11033 11032 11031 11029 11028 11027 11026 11024 11023 11021 11020 11018 11017 11016 11014 11013 11011 11010 11008 11006
10980 10982 10985 10987 10989 10991 10993 10995 10996 10998 10999 11000 11001 11002 11003 11005 11006 11008 11009 11011 11013 11014 11015 11017 11019 11021 11023 11025 11027 11028 11029 11031 11032 11034 11035 11036 11038 11039 11040 11041 11041 11042 11043 11043 11044 11044 11044 11044 11044 11044 11044 11044 11043 11043 11042 11042 11041 11041 11040 11040 11039 11038 11038 11037 11035 11034 11033 11032 11031 11030 11029 11027 11026 11025 11023 11022 11020 11019 11018 11016 11015 11014 11012 11011 11009
10976 10978 10981 10983 10986 10989 10991 10992 10994 10996 10998 10999 11000 11001 11002 11003 11005 11007 11009 11010 11012 11014 11015 11017 11018 11020 11022 11024 11026 11027 11029 11030 11031 11033 11034 11035 11037 11038 11039 11040 11041 11041 11042 11042 11043 11043 11044 11044 11044 11044 11044 11044 11044 11043 11043 11042 11041 11041 11041 11040 11040 11039 11039 11038 11037 11035 11034 11033 11032 11031 11030 11029 11028 11027 11025 11024 11022 11021 11019 11018 11017 11016 11015 11013 11012
10972 10975 10978 10981 10983 10986 10988 10989 10992 10994 10996 10997 10999 11000 11001 11003 11004 11005 11007 11009 11011 11014 11015 11017 11018 11020 11022 11023 11025 11026 11028 11029 11030 11032 11033 11034 11035 11036 11038 11039 11040 11040 11041 11041 11042 11043 11043 11043 11044 11044 11044 11044 11043 11043 11043 11042 11042 11041 11041 11041 11040 11040 11039 11039 11038 11037 11036 11034 11034 11033 11032 11031 11030 11028 11027 11025 11024 11022 11021 11019 11019 11018 11017 11016 11014
10968 10972 10975 10978 10981 10984 10986 10988 10990 10992 10994 10996 10998 10999 11001 11002 11004 11004 11006 11008 11010 11013 11015 11017 11019 11020 11021 11023 11024 11025 11027 11028 11029 11030 11032 11033 11034 11035 11036 11038 11039 11039 11040 11040 11041 11042 11042 11043 11043 11043 11043 11043 11043 11043 11043 11042 11042 11041 11041 11041 11041 11040 11040 11040 11039 11038 11037 11036 11035 11034 11033 11032 11031 11030 11029 11027 11025 11024 11022 11021 11020 11019 11019 11018 11017
10965 10969 10972 10976 10978 10981 10983 10986 10988 10990 10992 10995 10997 10998 10999 11001 11003 11004 11005 11007 11009 11012 11014 11017 11018 11020 11021 11023 11023 11024 11025 11027 11028 11029 11031 11032 11033 11034 11035 11036 11037 11038 11039 11039 11040 11041 11041 11042 11042 11043 11043 11043 11043 11043 11043 11042 11042 11042 11041 11041 11041 11041 11040 11040 11039 11039 11038 11037 11036 11035 11035 11034 11033 11032 11030 11029 11027 11026 11024 11023 11022 11021 11020 11019 11018
10962 10966 10969 10972 10975 10977 10980 10983 10986 10989 10991 10994 10995 10996 10997 10999 11001 11002 11003 11005 11008 11011 11013 11015 11017 11019 11021 11022 11023 11024 11025 11026 11027 11028 11029 11030 11031 11032 11034 11035 11036 11037 11038 11038 11039 11040 11040 11041 11041 11042 11042 11042 11042 11042 11042 11042 11042 11042 11041 11041 11041 11041 11040 11040 11040 11039 11038 11037 11036 11035 11035 11034 11034 11033 11032 11031 11029 11028 11026 11025 11024 11023 11022 11021 11020
10959 10963 10966 10969 10971 10974 10978 10981 10984 10987 10989 10991 10992 10994 10995 10997 10999 11000 11002 11004 11006 11009 11012 11014 11016 11018 11020 11022 11023 11023 11024 11025 11026 11027 11027 11029 11030 11031 11032 11033 11035 11036 11036 11037 11038 11038 11039 11039 11040 11040 11040 11041 11041 11041 11042 11041 11041 11041 11041 11041 11040 11040 11040 11040 11040 11039 11038 11038 11037 11036 11035 11035 11034 11033 11033 11032 11031 11030 11028 11027 11025 11024 11023 11022 11021
10955 10959 10963 10965 10968 10971 10975 10979 10981 10984 10987 10989 10990 10992 10994 10995 10997 10999 11000 11002 11004 11007 11010 11013 11015 11017 11019 11020 11021 11022 11022 11023 11024 11025 11026 11027 11028 11029 11031 11032 11033 11034 11035 11036 11036 11037 11038 11038 11039 11039 11039 11039 11040 11040 11041 11041 11041 11040 11040 11040 11040 11040 11039 11039 11039 11039 11038 11038 11037 11036 11035 11035 11034 11034 11033 11033 11032 11031 11030 11028 11027 11026 11024 11023 11023
10951 10956 10959 10962 10966 10969 10972 10976 10979 10982 10985 10986 10989 10992 10993 10994 10996 10998 10999 11000 11002 11004 11007 11010 11014 11017 11019 11020 11020 11020 11021 11022 11022 11023 11024 11026 11027 11027 11029 11030 11031 11032 11033 11034 11035 11035 11036 11037 11037 11038 11038 11038 11038 11039 11039 11040 11040 11039 11039 11039 11039 11039 11039 11039 11039 11039 11038 11038 11037 11037 11036 11035 11035 11034 11033 11033 11032 11031 11030 11029 11028 11027 11025 11024 11023
10947 10952 10956 10959 10963 10966 10970 10973 10976 10979 10982 10985 10988 10990 10991 10993 10995 10997 10998 11000 11001 11003 11005 11008 11011 11015 11018 11020 11020 11020 11020 11020 11021 11022 11023 11024 11025 11026 11027 11028 11029 11030 11032 11032 11033 11034 11035 11035 11036 11036 11037 11037 11037 11037 11038 11038 11038 11038 11038 11038 11038 11038 11038 11038 11038 11038 11038 11038 11037 11037 11036 11035 11035 11034 11033 11033 11032 11032 11031 11030 11029 11028 11026 11025 11024
10943 10950 10953 10956 10960 10964 10967 10970 10974 10977 10980 10984 10986 10987 10989 10991 10992 10994 10997 10999 11001 11002 11003 11005 11008 11012 11017 11019 11021 11020 11019 11019 11020 11020 11021 11022 11022 11023 11024 11026 11027 11028 11030 11031 11031 11032 11033 11034 11034 11035 11035 11035 11035 11035 11036 11036 11037 11037 11037 11037 11037 11037 11037 11037 11036 11037 11037 11037 11037 11036 11036 11035 11034 11034 11033 11032 11032 11031 11031 11030 11029 11028 11027 11025 11024
10941 10947 10951 10954 10957 10961 10965 10968 10971 10974 10978 10981 10983 10984 10987 10989 10990 10992 10995 10998 11001 11002 11002 11003 11005 11009 11014 11017 11020 11020 11019 11019 11019 11019 11020 11020 11021 11022 11023 11024 11025 11026 11028 11029 11029 11030 11031 11032 11033 11033 11034 11034 11034 11034 11034 11035 11035 11036 11036 11036 11036 11036 11036 11036 11035 11035 11035 11035 11036 11035 11035 11034 11034 11033 11033 11032 11031 11031 11030 11029 11029 11028 11027 11025 11024
10939 10945 10949 10951 10955 10958 10962 10965 10968 10971 10975 10978 10980 10982 10984 10987 10989 10992 10995 10997 10999 11002 11003 11003 11004 11006 11010 11014 11017 11019 11019 11018 11018 11019 11019 11019 11020 11020 11021 11022 11023 11025 11026 11027 11027 11028 11029 11030 11031 11032 11032 11032 11032 11032 11032 11033 11034 11034 11034 11034 11034 11035 11035 11034 11034 11034 11034 11034 11034 11034 11034 11034 11033 11033 11032 11031 11030 11029 11029 11028 11027 11027 11026 11025 11024
10936 10941 10945 10948 10951 10955 10958 10962 10965 10968 10972 10975 10977 10979 10982 10984 10988 10991 10993 10995 10997 11000 11003 11003 11004 11004 11007 11011 11015 11017 11017 11017 11017 11018 11018 11018 11019 11019 11020 11021 11022 11023 11024 11025 11025 11026 11028 11029 11029 11030 11030 11030 11030 11030 11031 11031 11032 11033 11033 11032 11032 11033 11033 11033 11033 11032 11032 11032 11032 11032 11033 11032 11032 11032 11031 11030 11029 11028 11027 11026 11026 11025 11025 11024 11023
10931 10936 10939 10943 10946 10951 10954 10958 10962 10965 10968 10971 10974 10976 10979 10982 10986 10988 10991 10993 10996 10998 11001 11002 11003 11004 11005 11008 11011 11014 11015 11016 11016 11017 11017 11017 11017 11018 11018 11019 11020 11022 11022 11023 11024 11025 11026 11027 11028 11028 11028 11028 11028 11029 11029 11030 11030 11031 11031 11031 11030 11030 11031 11031 11031 11031 11031 11031 11030 11031 11031 11031 11030 11030 11030 11029 11028 11027 11026 11025 11024 11023 11023 11022 11022
10925 10929 10934 10938 10943 10948 10952 10956 10960 10963 10965 10968 10971 10974 10977 10980 10983 10986 10988 10991 10993 10996 10998 11000 11002 11004 11005 11006 11009 11011 11013 11014 11014 11015 11015 11015 11016 11016 11017 11017 11018 11019 11020 11022 11022 11023 11025 11026 11026 11026 11026 11026 11026 11027 11028 11028 11029 11029 11029 11029 11029 11029 11029 11029 11029 11029 11029 11029 11029 11029 11029 11029 11029 11028 11028 11028 11027 11026 11025 11024 11023 11022 11021 11020 11020
10919 10924 10930 10935 10940 10946 10951 10955 10958 10961 10963 10967 10970 10972 10975 10978 10981 10983 10985 10988 10991 10994 10996 10998 11000 11002 11004 11005 11006 11009 11010 11011 11012 11012 11013 11013 11014 11014 11015 11016 11016 11017 11018 11020 11021 11021 11022 11023 11024 11024 11024 11024 11024 11025 11026 11027 11027 11027 11027 11026 11026 11027 11027 11027 11027 11027 11027 11027 11027 11027 11026 11026 11026 11026 11026 11026 11025 11024 11023 11022 11021 11020 11019 11018 11018
10915 10920 10924 10929 10936 10945 10950 10953 10956 10959 10962 10966 10970 10973 10975 10978 10980 10981 10983 10985 10988 10991 10993 10994 10997 11000 11002 11003 11004 11006 11008 11009 11009 11010 11010 11011 11012 11013 11013 11014 11014 11015 11016 11018 11019 11019 11020 11021 11022 11022 11022 11022 11022 11023 11024 11025 11025 11025 11025 11024 11024 11025 11025 11025 11025 11025 11025 11025 11025 11024 11024 11024 11024 11024 11024 11023 11023 11022 11021 11021 11020 11019 11018 11017 11016
10911 10915 10917 10925 10935 10941 10947 10952 10954 10956 10960 10964 10967 10969 10971 10974 10976 10978 10981 10984 10986 10987 10988 10990 10992 10995 10997 10999 11001 11003 11005 11006 11007 11007 11008 11008 11009 11010 11011 11012 11012 11013 11014 11015 11017 11018 11018 11019 11019 11020 11020 11020 11021 11021 11021 11022 11023 11023 11023 11023 11022 11022 11022 11023 11022 11022 11022 11023 11022 11022 11022 11022 11021 11021 11021 11021 11021 11020 11019 11019 11018 11017 11016 11015 11014
10906 10910 10913 10921 10930 10933 10940 10950 10955 10957 10961 10963 10963 10965 10966 10967 10969 10969 10972 10978 10983 10985 10985 10985 10985 10987 10990 10993 10996 10999 11001 11003 11004 11005 11005 11006 11006 11007 11008 11009 11010 11011 11012 11013 11014 11015 11017 11017 11018 11018 11018 11018 11019 11020 11020 11020 11021 11021 11020 11020 11020 11020 11020 11020 11020 11020 11020 11020 11020 11019 11019 11019 11019 11018 11018 11018 11018 11018 11017 11016 11016 11015 11014 11013 11012
10899 10905 10908 10915 10922 10926 10932 10944 10954 10959 10962 10962 10960 10961 10961 10963 10966 10965 10964 10967 10973 10978 10982 10983 10981 10979 10981 10985 10990 10994 10997 11000 11001 11002 11002 11003 11003 11004 11005 11006 11008 11009 11010 11010 11011 11013 11014 11016 11016 11016 11016 11016 11017 11018 11018 11018 11019 11018 11018 11018 11018 11018 11017 11017 11017 11017 11017 11016 11016 11016 11016 11016 11016 11015 11015 11015 11015 11015 11014 11014 11013 11013 11011 11010 11009
10892 10898 10901 10906 10915 10920 10924 10933 10941 10947 10952 10954 10955 10955 10957 10959 10963 10964 10962 10961 10963 10967 10973 10978 10977 10974 10974 10977 10982 10987 10992 10995 10998 10999 11000 11000 11001 11001 11002 11003 11004 11007 11008 11008 11009 11010 11011 11013 11014 11014 11014 11014 11014 11014 11015 11016 11016 11016 11016 11015 11015 11015 11015 11014 11014 11015 11014 11014 11013 11013 11013 11013 11013 11013 11012 11012 11012 11012 11011 11011 11010 11010 11009 11008 11006
10885 10892 10895 10900 10907 10912 10918 10925 10930 10933 10939 10946 10948 10949 10951 10954 10956 10958 10959 10960 10960 10960 10961 10963 10964 10965 10967 10970 10975 10981 10986 10991 10993 10995 10997 10997 10998 10999 11000 11000 11001 11003 11006 11006 11007 11007 11008 11009 11011 11011 11012 11011 11011 11011 11012 11013 11013 11014 11013 11012 11011 11011 11011 11012 11012 11012 11011 11011 11010 11009 11010 11009 11009 11010 11009 11009 11009 11008 11008 11008 11007 11006 11005 11004 11003
10877 10884 10889 10894 10900 10905 10911 10919 10924 10927 10932 10936 10939 10941 10944 10947 10949 10951 10953 10956 10957 10957 10955 10955 10956 10959 10962 10965 10970 10975 10981 10986 10989 10991 10993 10994 10995 10997 10998 10998 10999 11000 11003 11004 11005 11005 11005 11006 11008 11009 11009 11009 11008 11009 11009 11009 11010 11010 11010 11009 11008 11008 11008 11008 11009 11009 11008 11008 11007 11006 11006 11006 11006 11006 11006 11005 11005 11005 11004 11004 11003 11003 11002 11001 11000
10868 10877 10882 10887 10892 10897 10904 10911 10916 10920 10923 10926 10930 10934 10938 10941 10944 10946 10949 10951 10953 10953 10953 10953 10955 10957 10960 10963 10966 10971 10976 10981 10984 10986 10989 10991 10993 10994 10996 10997 10997 10998 10999 11001 11003 11003 11004 11004 11005 11005 11006 11006 11006 11006 11006 11006 11006 11006 11007 11006 11005 11005 11005 11004 11005 11005 11005 11004 11003 11003 11002 11002 11002 11002 11002 11001 11001 11000 11000 11000 10999 10998 10997 10997 10996
10857 10867 10874 10880 10885 10890 10896 10902 10907 10912 10916 10919 10922 10927 10932 10936 10939 10942 10945 10947 10948 10949 10949 10949 10951 10954 10958 10961 10964 10968 10973 10977 10980 10983 10985 10988 10990 10992 10994 10995 10996 10996 10997 10998 11000 11001 11001 11002 11002 11003 11003 11004 11004 11004 11003 11003 11003 11003 11003 11002 11002 11002 11001 11000 11000 11001 11001 11000 11000 10999 10999 10999 10999 10999 10998 10997 10996 10996 10996 10995 10995 10994 10993 10992 10992
10847 10857 10864 10870 10877 10883 10888 10894 10899 10904 10909 10912 10916 10921 10926 10930 10933 10937 10940 10942 10943 10943 10943 10943 10945 10949 10955 10959 10963 10967 10970 10974 10977 10980 10982 10985 10987 10989 10992 10993 10994 10994 10994 10996 10997 10998 10998 10999 11000 11001 11001 11001 11001 11001 11000 11000 11000 11000 11000 10999 10998 10998 10997 10996 10996 10996 10996 10996 10995 10995 10995 10995 10995 10995 10994 10993 10993 10992 10991 10990 10990 10989 10988 10987 10987
10837 10847 10854 10861 10869 10875 10880 10886 10891 10896 10901 10905 10910 10916 10920 10924 10927 10930 10934 10935 10935 10936 10937 10939 10943 10947 10952 10956 10960 10964 10967 10971 10974 10977 10980 10982 10985 10987 10988 10990 10991 10992 10992 10993 10994 10995 10996 10996 10997 10998 10998 10998 10998 10998 10998 10997 10997 10997 10996 10995 10994 10993 10993 10992 10992 10992 10992 10991 10991 10991 10991 10991 10991 10991 10990 10990 10989 10988 10987 10986 10985 10984 10983 10982 10981
10826 10835 10844 10852 10860 10866 10871 10877 10883 10889 10894 10898 10904 10910 10915 10918 10921 10925 10927 10928 10928 10929 10933 10937 10941 10944 10948 10953 10957 10962 10965 10968 10971 10974 10977 10979 10982 10984 10985 10987 10988 10989 10990 10990 10991 10992 10993 10993 10994 10994 10995 10995 10995 10994 10994 10994 10994 10993 10993 10992 10990 10989 10988 10988 10988 10987 10987 10986 10986 10986 10986 10986 10986 10986 10986 10986 10985 10984 10983 10981 10980 10979 10977 10976 10974
10813 10823 10832 10842 10850 10856 10862 10868 10874 10881 10886 10891 10897 10904 10908 10912 10916 10919 10919 10920 10922 10926 10931 10935 10938 10941 10945 10949 10954 10959 10963 10966 10968 10971 10973 10976 10978 10981 10982 10983 10984 10985 10986 10987 10988 10989 10990 10990 10990 10991 10991 10991 10991 10991 10991 10991 10991 10990 10989 10988 10986 10985 10984 10984 10983 10982 10982 10982 10981 10981 10981 10981 10982 10982 10982 10981 10980 10980 10978 10977 10976 10974 10972 10970 10968
10802 10812 10822 10831 10840 10846 10852 10858 10866 10873 10879 10885 10891 10896 10901 10906 10910 10911 10911 10913 10918 10924 10928 10931 10934 10937 10941 10945 10950 10955 10960 10963 10965 10967 10970 10972 10975 10977 10978 10979 10981 10982 10983 10983 10984 10985 10986 10986 10986 10986 10987 10987 10987 10987 10987 10988 10988 10987 10986 10984 10982 10981 10980 10980 10978 10978 10978 10977 10977 10976 10976 10977 10978 10978 10978 10977 10975 10974 10973 10972 10970 10969 10966 10965 10963
10792 10802 10812 10821 10829 10837 10843 10850 10858 10865 10872 10878 10885 10890 10895 10900 10902 10901 10903 10908 10914 10919 10924 10927 10930 10932 10936 10942 10947 10951 10956 10960 10962 10964 10966 10969 10971 10973 10973 10975 10976 10978 10979 10980 10980 10980 10981 10982 10982 10982 10982 10982 10983 10983 10983 10984 10984 10984 10982 10981 10979 10977 10977 10976 10974 10973 10973 10973 10972 10971 10971 10972 10973 10974 10973 10971 10970 10968 10967 10966 10965 10963 10961 10960 10959
10782 10791 10802 10811 10819 10828 10835 10842 10849 10857 10864 10871 10879 10884 10889 10892 10892 10893 10897 10903 10908 10913 10918 10922 10924 10928 10932 10938 10943 10947 10951 10955 10958 10960 10962 10964 10966 10968 10969 10970 10972 10974 10975 10975 10975 10975 10976 10976 10977 10977 10977 10977 10977 10978 10979 10979 10979 10979 10978 10977 10975 10973 10973 10972 10970 10969 10968 10968 10967 10967 10967 10968 10968 10968 10967 10965 10964 10963 10961 10960 10959 10958 10956 10955 10954
10770 10779 10791 10800 10809 10819 10827 10833 10841 10848 10855 10863 10871 10877 10881 10882 10883 10886 10892 10897 10902 10907 10911 10915 10919 10924 10928 10934 10939 10943 10947 10951 10953 10956 10958 10960 10962 10963 10964 10965 10968 10969 10969 10969 10970 10970 10970 10970 10970 10971 10971 10972 10972 10972 10973 10974 10974 10973 10973 10972 10971 10969 10968 10967 10966 10965 10964 10963 10963 10962 10962 10962 10962 10962 10961 10960 10959 10957 10955 10954 10953 10952 10951 10951 10950
10760 10769 10779 10790 10799 10808 10817 10824 10831 10838 10847 10855 10863 10869 10872 10873 10876 10880 10886 10891 10897 10902 10905 10910 10915 10920 10924 10930 10935 10938 10942 10946 10948 10950 10952 10955 10957 10958 10959 10961 10963 10963 10962 10963 10963 10964 10964 10964 10964 10964 10965 10966 10966 10966 10966 10968 10969 10968 10968 10967 10966 10965 10964 10963 10962 10961 10960 10959 10958 10957 10956 10956 10955 10955 10955 10954 10953 10952 10950 10949 10948 10947 10946 10946 10945
10755 10762 10770 10780 10789 10797 10807 10816 10822 10829 10838 10846 10853 10859 10863 10865 10868 10873 10879 10885 10892 10897 10901 10905 10911 10916 10921 10926 10930 10933 10937 10941 10943 10945 10947 10949 10951 10953 10954 10955 10957 10956 10956 10956 10956 10956 10957 10956 10957 10957 10958 10960 10960 10958 10958 10960 10963 10963 10962 10962 10961 10961 10960 10958 10957 10956 10956 10954 10953 10952 10951 10950 10949 10949 10949 10948 10947 10946 10945 10944 10942 10941 10941 10940 10940
10747 10756 10763 10771 10779 10788 10797 10807 10814 10821 10829 10837 10844 10850 10855 10858 10861 10866 10872 10879 10886 10892 10896 10901 10906 10912 10917 10921 10924 10927 10931 10935 10938 10940 10941 10943 10945 10946 10948 10949 10950 10950 10949 10948 10948 10947 10947 10948 10949 10950 10951 10951 10951 10951 10950 10952 10955 10956 10955 10956 10956 10956 10955 10954 10952 10951 10951 10949 10947 10946 10945 10944 10943 10943 10942 10942 10941 10941 10940 10939 10938 10937 10936 10935 10934
10737 10747 10755 10763 10771 10779 10788 10797 10805 10812 10821 10829 10835 10842 10848 10852 10855 10860 10867 10873 10880 10886 10891 10896 10902 10907 10912 10916 10918 10921 10924 10928 10932 10935 10936 10938 10939 10940 10941 10941 10942 10941 10940 10940 10939 10938 10938 10940 10941 10943 10943 10943 10944 10944 10944 10945 10947 10948 10949 10949 10950 10950 10950 10949 10948 10946 10945 10943 10942 10941 10940 10938 10938 10937 10936 10936 10936 10936 10935 10934 10933 10932 10931 10929 10928
10727 10738 10746 10753 10761 10770 10779 10787 10796 10804 10814 10821 10827 10834 10840 10845 10850 10855 10862 10867 10873 10880 10885 10891 10895 10901 10905 10909 10911 10914 10918 10924 10928 10931 10933 10933 10933 10933 10932 10932 10932 10931 10931 10932 10931 10930 10931 10933 10935 10936 10937 10937 10937 10938 10938 10938 10939 10942 10943 10943 10943 10944 10944 10944 10943 10941 10938 10937 10936 10935 10934 10933 10932 10931 10931 10930 10930 10930 10929 10929 10928 10927 10926 10924 10922